Tracking 30692 objects as of 17-Jun-2025
HD Live streaming from Space Station
objects crossing your sky now

CENTAURI-1

Track CENTAURI-1 now!
10-day predictions
CENTAURI-1 is classified as:


NORAD ID: 43809
Int'l Code: 2018-099BD
Perigee: 527.6 km
Apogee: 550.8 km
Inclination: 97.5 °
Period: 95.3 minutes
Semi major axis: 6910 km
RCS: Unknown
Launch date: December 3, 2018
Source: Australia (AUS)
Launch site: AIR FORCE WESTERN TEST RANGE (AFWTR)

Uplink (MHz):
Downlink (MHz): 400.625
Beacon (MHz):
Mode: 9600bps FSK
Call sign:
Status: Inactive

Your satellite tracking list
Your tracking list is empty




NASA's NSSDC Master Catalog

Two Line Element Set (TLE):
1 43809U 18099BD  25167.42148299  .00004191  00000-0  25140-3 0  9991
2 43809  97.4746 222.0888 0016791 148.8650 211.3579 15.11365633357163
Source of the keplerian elements: AFSPC